#timestamp,LO_Frequency,Hit,StdDev 
1670072415.6,286047004.1,N
1670072435.5,286047001.5,N
1670072455.3,286047002.4,N
1670072475.2,286047000.1,N
1670072495.9,286047002.4,N
1670072515.7,286047002.3,N
1670072535.6,286047003.0,N
1670072555.4,286047003.8,N
1670072575.3,286047001.9,N
1670072595.1,286046999.8,N
1670072596.0,286046999.8,N
1670072615.8,286047000.3,N
1670072635.7,286047002.3,N
1670072655.5,286047002.7,N
1670072675.3,286047002.8,N
1670072695.2,286047001.8,N
1670072715.0,286047002.7,N
1670072715.9,286047002.7,N
1670072735.8,286046999.7,N
1670072755.6,286047002.4,N
1670072775.4,286047001.3,N
1670072795.3,286047001.3,N
1670072815.1,286047003.6,N
1670072835.8,286047003.2,N
1670072885.7,286047003.3,E
1670072895.6,286047002.1,N
1670072915.5,286046998.1,P
1670072935.3,286046998.3,N
1670072955.2,286046998.4,N
1670072975.9,286046998.3,N
1670072995.7,286047000.2,N
1670073015.6,286046998.7,N
1670073035.4,286046998.1,N
1670073055.2,286046998.7,N
1670073075.1,286046999.9,N
1670073076.0,286046999.9,N
1670073095.8,286047000.3,N
1670073115.7,286047000.4,N
1670073135.5,286047001.0,N
1670073155.3,286046998.5,N
1670073175.2,286046998.5,N
1670073195.0,286046998.6,N
1670073195.9,286046998.6,N
1670073215.8,286046998.1,N
1670073235.6,286046998.7,N
1670073255.4,286046998.2,N
1670073275.3,286046998.8,N
1670073295.1,286046998.9,N
1670073315.8,286046998.1,N
1670073335.7,286047000.8,N
1670073355.5,286046998.7,N
1670073375.4,286046999.4,N
1670073395.2,286046998.4,N
1670073415.0,286046999.3,N
1670073415.9,286046999.3,N
1670073435.8,286046999.2,N
1670073455.6,286046999.3,N
1670073475.5,286046999.3,N
1670073495.3,286046999.0,N
1670073515.1,286047001.1,N
1670073535.9,286046998.2,N
1670073555.7,286047001.1,N
1670073575.5,286047001.1,N
1670073595.4,286047000.8,N
1670073615.2,286046998.3,N
1670073635.1,286046996.6,Y
1670073636.0,286046996.6,P
1670073655.8,286046999.4,N
1670073675.6,286046998.9,N
1670073695.5,286046998.6,N
1670073715.3,286046998.2,N
1670073735.2,286046999.1,N
1670073755.9,286046999.0,N
1670073775.7,286047000.7,N
1670073795.6,286047001.0,N
1670073815.4,286047000.9,N
1670073835.3,286046999.7,N
1670073855.1,286046998.7,N
1670073856.0,286046998.7,N
1670073875.8,286046998.8,N
1670073895.7,286047001.2,N
1670073915.5,286046998.4,N
1670073935.3,286046999.4,N
1670073955.2,286046996.6,Y
1670073975.0,286046999.4,P
1670073975.9,286046999.4,P
1670073995.8,286046998.4,P
1670074015.6,286047001.0,N
1670074035.4,286046998.1,N
1670074055.3,286047001.0,N
1670074075.1,286046998.1,N
1670074095.9,286047001.1,N
1670074115.7,286046998.2,N
1670074135.5,286046998.3,N
1670074155.4,286046998.2,N
1670074175.2,286046997.0,N
1670074195.0,286046999.1,N
1670074195.9,286046999.1,N
1670074215.8,286046998.5,N
1670074235.6,286046998.4,N
1670074255.5,286047000.3,N
1670074275.3,286047000.9,N
1670074295.1,286047000.7,N
1670074315.9,286047000.7,N
1670074335.7,286047000.0,N
1670074355.6,286047000.3,N
1670074375.4,286046998.5,N
1670074395.2,286046998.7,N
1670074415.1,286046998.1,N
1670074416.0,286046998.1,N
1670074435.8,286046998.6,N
1670074455.7,286047001.1,N
1670074475.5,286046998.3,N
1670074495.3,286046998.1,N
1670074515.2,286046998.4,N
1670074535.0,286047000.6,N
1670074535.9,286047000.6,N
1670074555.7,286046998.7,N
1670074575.6,286046998.9,N
1670074595.4,286047000.6,N
1670074615.3,286047000.5,N
1670074635.1,286047000.3,N
1670074636.0,286047000.3,N
1670074655.8,286047002.8,N
1670074675.7,286047002.3,N
1670074695.5,286047002.8,N
1670074715.3,286047001.0,N
1670074735.2,286047000.4,N
1670074755.0,286047001.0,N
1670074755.9,286047001.0,N
1670074775.8,286047000.5,N
1670074795.6,286046998.2,N
1670074815.4,286046998.1,N
1670074835.3,286046998.4,N
1670074855.1,286046998.4,N
1670074875.8,286046998.7,N
1670074895.7,286046998.9,N
1670074915.5,286046998.9,N
1670074935.4,286046999.5,N
1670074955.2,286047001.1,N
1670074975.0,286047000.6,N
1670074975.9,286047000.6,N
1670074995.8,286047002.7,N
1670075015.6,286047002.5,N
1670075035.4,286046999.8,N
1670075055.3,286047001.1,N
1670075075.1,286047000.6,N
1670075095.9,286047001.1,N
1670075115.7,286047001.0,N
1670075135.5,286047000.4,N
1670075155.4,286047001.2,N
1670075175.2,286046998.2,N
1670075195.0,286047000.8,N
1670075195.9,286047000.8,N
1670075215.8,286046999.1,N
1670075235.6,286046997.5,N
1670075255.5,286046997.8,N
1670075275.3,286046997.1,N
1670075295.1,286046996.9,N
1670075315.9,286046997.4,N
1670075335.7,286046997.1,N
1670075355.6,286046996.9,N
1670075375.4,286046998.3,N
1670075395.2,286046999.3,N
1670075415.1,286047000.9,N
1670075416.0,286047000.9,N
1670075435.8,286046998.7,N
1670075455.7,286046998.4,N
1670075475.5,286047000.8,N
1670075495.3,286046998.4,N
1670075515.2,286046998.6,N
1670075535.9,286046998.3,N
1670075555.7,286046998.6,N
1670075575.6,286046998.3,N
1670075595.4,286046998.2,N
1670075615.3,286047001.2,N
1670075635.1,286046998.8,N
1670075636.0,286046998.8,N
1670075655.8,286046997.3,N
1670075675.7,286046995.2,Y
1670075695.5,286046999.2,P
1670075715.3,286046996.9,P
1670075735.2,286046998.8,N
1670075755.0,286047001.1,N
1670075755.9,286047001.1,N
1670075775.8,286047000.4,N
1670075795.6,286047001.1,N
1670075815.4,286047000.7,N
1670075835.3,286047002.5,N
1670075855.1,286047000.5,N
1670075875.8,286047000.1,N
1670075895.7,286046999.8,N
1670075915.5,286047002.4,N
1670075935.4,286047001.6,N
1670075955.2,286046999.8,N
1670075975.0,286046999.7,N
1670075975.9,286046999.7,N
1670075995.8,286047002.7,N
